STARLINK-32864, 62862

Orbit data source: Space-Track

STARLINK-32864, 62862 is a payload satellite owned by SpaceX/Seattle (US) in LEO that was launched on Sat, 01 Feb 2025 UTC via an FALCON 9 launch vehicle from the Air Force Western Test Range (AFWTR). Payload-class satellites include a variety of spacecraft equipped with specific instruments for various scientific and technological missions. These include communications satellites like Starlink; space stations such as the ISS; scientific satellites like the Hubble; Earth observation satellites from companies like Planet Labs, Umbra, and HawkEye 360; GPS; miniature CubeSats for education and research; and military/defense satellites.

Loading next visibility...
Identifier
62862, 2025-022J
Orbit
LEO
Country
Flag of USUS
Related business
Manufacturer
SpaceX/Seattle
Mission
Operational Commercial Communications
Bus & Motor
STARLINK V2M, Unknown motor
Mass
730 kg wet, ~700 kg dry
Launch date (UTC)
2025-02-01 (9 months ago)
Launch vehicle
FALCON 9
Launch site
Air Force Western Test Range (AFWTR)
Object type
Payload
Rocket body
Debris
Shape & HBR
Box + 2 Pan, 17.7 m
Radar Cross Section
33.884 m², Large (>1 m²)

Expand to show TLE details & history
Last TLE update: 16 hours ago

TLE from 16 hours ago
0 STARLINK-32864
1 62862U 25022J   25297.59020630  .00025500  00000-0  86995-3 0  9997
2 62862  53.1584  41.7028 0001211  89.9798 270.1341 15.30206856 41064
Epoch: 2025-10-24T14:09Z
TLE epoch observation values (Epoch: 2025-10-24T14:09:53.824Z)
Latitude
-0.00005°
Longitude
155.99557°
Altitude
476.092 km
Speed
7.629 km/s
True Right ascension
02h 46m 48s
True Declination
0° 00' 00"
Sunlit
Object was in full shadow at epoch
Visualization orbit readout
Latitude
Unknown
Longitude
Unknown
Altitude
Unknown
Speed
Unknown
Apparent Right ascension
Unknown
Apparent Declination
Unknown
Sunlit
N/A
Visualization observer readout
Local Sidereal Time
01:14:29
Azimuth
Unknown
Elevation
Unknown
Doppler factor
Unknown
Orbital elements
Apogee altitude
476.281 km
Perigee altitude
474.621 km
Semi-major axis
6,853.588 km
Eccentricity
0.00012
Inclination
53.1584°
RAAN
41.7028°
Arg. of periapsis
89.9798°
True anomaly
270.12022°
Mean anomaly
270.1341°
Eccentric anomaly
270.12716°
Mean motion
3.82531 °/min
Orbital period
94.11 mins
BSTAR
0.00086995
Loading maneuver chart data...
Computing Atmospheric mass density...
Loading historical data...
Loading historical data...
Loading historical data...
Loading historical data...
Loading historical data...
Loading historical data...
Loading historical data...

Documentation

Showing up to 5 results
|